Location: Arbon
(43.0005°N, 0.7472°E)
Time: 01:15:51
(UTC+00:00)

SL-16 R/B - Pass Details

Date: 07 August 2020
Orbit: 985 x 1007 km, 99.5° (Epoch: 27 September)

Event Time Altitude Azimuth Distance (km) Brightness Sun altitude
Exits shadow 02:13:42 47° 233° (SW) 1,311 2.7 -23.5°
Maximum altitude 02:14:37 50° 260° (W) 1,257 2.7 -23.4°
Drops below altitude 10° 02:20:42 10° 335° (NNW) 2,790 5.2 -22.8°
Sets 02:23:17 0° 341° (NNW) 3,742 6.0 -22.5°
